ATLAS 5 CENTAUR DEB, 43981

Orbit data source: Space-Track

ATLAS 5 CENTAUR DEB, 43981 is space debris in HEO originally from a launch on Wed, 17 Sep 2014 UTC launched from the Air Force Eastern Test Range (AFETR). Debris objects in space refer to the collection of defunct objects orbiting the Earth. Examples of debris include non-operational satellites, rocket bodies, and fragments generated from explosions, collisions, or faulty payload assembly.

Loading next visibility...
ATLAS 5 CENTAUR DEB details
Identifier
43981, 2014-055AL
Orbit
HEO
Last TLE update18 hours ago
Origin
Flag of USULA (US)
ManufacturerUnknown
MissionSpacecraft
Bus & MotorUnknown
MassUnknown
Launch date (UTC)
2014-09-17 (10 years ago)
Launch vehicleUnknown
Launch site
Air Force Eastern Test Range (AFETR)
Object type
Payload
Rocket body
Debris
Shape & HBRUnknown
Radar Cross SectionSmall (<0.1 m²)

Expand to show TLE details & history

TLE from 18 hours ago
0 ATLAS 5 CENTAUR DEB
1 43981U 14055AL  25025.06343115  .00000014  00000-0  00000-0 0  9992
2 43981  19.3288 190.0107 5230652  79.0363 333.3122  1.78795120 41694
Epoch: 2025-01-25T01:31Z
Definitive object data (Epoch: 2025-01-25T01:31:20.451Z)
Latitude-0°
Longitude42.46979°
Altitude12,572.787 km
Speed5.307 km/s
True Right ascension12h 39m 41s
True Declination0° 00' 00"
Sunlit
Object was in daylight at TLE epoch
Visualization TLE readout
Latitude-13.20705°
Longitude-95.62418°
Altitude29,832.898 km
Speed2.849 km/s
Apparent Right ascension03h 57m 47s
Apparent Declination-18° 42' 60"
Sunlit
Object is in daylight
Visualization observer readout
Local Sidereal Time20:48:17
Azimuth94.088° ESE
Elevation-25.015°
Doppler factor1
Orbital elements
Apogee altitude37,298.403 km
Perigee altitude7,298.797 km
Semi-major axis28,676.737 km
Eccentricity0.5230652
Inclination19.3288°
RAAN190.0107°
Arg. of periapsis79.0363°
True anomaly281.08019°
Mean anomaly333.3122°
Eccentric anomaly310.53525°
Mean motion0.44694 °/min
BSTARUnknown
Orbital period805.48 mins
Loading maneuver chart data...

ATLAS 5 CENTAUR DEB Visibility forecast

Observer location: undefined°, undefined

Span
Click to sort rows by Start time (UTC) header in descending order
Start Az.
Max El. time (UTC)
Max El. Az.
Max El.
End time (UTC)
End Az.
54 mins2025-01-26 18:33:20.520Z259.795° W2025-01-26 19:09:20.520Z187.069° SSW38.146°2025-01-26 19:27:20.520Z146.797° SSE
|